Flag for Netherlands Weather past 2 weeks in Eindhoven, Netherlands

Now
55 °F

Fog.


Feels Like: 53 °F
Forecast: 47 / 59 °F
Wind: 10 mph from Southwest

Location: Eindhoven Airport

Current Time: Oct 25, 2014 at 12:45:40 PM

Latest Report: Oct 25, 2014 at 12:03 PM


Visibility: 1 mi

Pressure: 30.07 "Hg

Humidity: 94%

Dew point: 54 °F

Location of EindhovenLocation

Historic Weather in Eindhoven — Graph

°F

Eindhoven temperature yesterday

Maximum temperature yesterday: 55 °F (at 3:25 PM)
Minimum temperature yesterday: 52 °F (at 2:25 AM)
Average temperature yesterday: 53 °F

Past Weeks' High & Low Weather Summary

 TemperatureHumidityPressure
High75 °F (Oct 18, 4:25 PM)100% (Oct 10, 10:55 PM)30.21 "Hg (Oct 10, 10:55 PM)
Low45 °F (Oct 11, 3:59 AM)60% (Oct 13, 2:25 PM)29.47 "Hg (Oct 21, 2:55 PM)
Average56 °F85%29.89 "Hg
* Reported Oct 10 11:25 AM — Oct 25 11:25 AM, Eindhoven, Weather by CustomWeather, © 2014

Note: Actual official high and low records may vary slightly from our data, if they occured in-between our weather recording intervals... More about our weather records

Advertising

Eindhoven weather history for previous 24 hours

 ConditionsComfort  
Time TempWeatherWind HumidityBarometerVisibility
11:25 AM
Oct 25
55 °FFog.7 mph100%30.07 "Hg1 mi
10:55 AM55 °FFog.8 mph100%30.07 "Hg1 mi
10:25 AM55 °FFog.8 mph94%30.07 "Hg1 mi
9:55 AM55 °FFog.7 mph94%30.04 "Hg1 mi
9:25 AM55 °FFog.7 mph94%30.04 "Hg1 mi
8:55 AM54 °FFog.7 mph100%30.04 "Hg2 mi
8:25 AM54 °FFog.7 mph100%30.04 "Hg2 mi
7:55 AM54 °FFog.8 mph100%30.01 "Hg2 mi
7:25 AM54 °FFog.9 mph100%30.01 "Hg2 mi
6:58 AM54 °FFog.9 mph100%30.01 "Hg2 mi
6:55 AM54 °FFog.9 mph100%30.01 "Hg1 mi
6:25 AM54 °FFog.9 mph100%30.01 "Hg2 mi
5:55 AM54 °FFog.9 mph100%30.01 "Hg2 mi
5:25 AM54 °FFog.9 mph94%30.01 "Hg2 mi
4:55 AM54 °FFog.9 mph94%30.01 "Hg3 mi
4:25 AM54 °FFog.10 mph94%30.01 "Hg4 mi
3:55 AM54 °FFog.8 mph94%30.01 "Hg4 mi
3:25 AM54 °FFog.12 mph94%30.01 "Hg4 mi
2:55 AM52 °FLight rain. Mostly cloudy.9 mph100%30.01 "Hg2 mi
2:25 AM52 °FFog.9 mph100%30.01 "Hg4 mi
1:55 AM52 °FFog.9 mph100%30.01 "Hg4 mi
1:25 AM52 °FFog.8 mph94%30.01 "Hg4 mi
12:59 AM52 °FFog.10 mph94%30.01 "Hg5 mi
12:55 AM52 °FFog.9 mph94%30.01 "Hg5 mi
12:25 AM52 °FLight rain. Partly cloudy.8 mph94%30.01 "Hg4 mi
12:03 AM52 °FRain. Passing clouds.8 mph94%30.01 "Hg3 mi
11:55 PM
Oct 24
52 °FRain. Mostly cloudy.8 mph94%30.01 "Hg3 mi
11:25 PM52 °FRain. Partly cloudy.9 mph94%30.01 "HgN/A
10:57 PM54 °FDrizzle. Overcast.8 mph88%30.01 "HgN/A
10:25 PM52 °FMostly cloudy.9 mph94%30.01 "HgN/A
9:55 PM52 °FMostly cloudy.9 mph94%30.01 "HgN/A
9:25 PM52 °FPartly cloudy.10 mph94%30.01 "HgN/A
8:55 PM52 °FPartly cloudy.10 mph94%30.04 "HgN/A
8:25 PM54 °FMostly cloudy.13 mph88%30.04 "HgN/A
7:55 PM54 °FOvercast.12 mph82%30.04 "HgN/A
7:25 PM54 °FBroken clouds.12 mph82%30.04 "HgN/A
6:55 PM54 °FDrizzle. Mostly cloudy.7 mph88%30.04 "HgN/A
6:25 PM55 °FDrizzle. Overcast.7 mph82%30.01 "HgN/A
5:55 PM55 °FMostly cloudy.8 mph77%30.04 "HgN/A
5:25 PM55 °FMostly cloudy.10 mph77%30.04 "HgN/A
4:55 PM55 °FOvercast.10 mph77%30.04 "HgN/A
4:25 PM55 °FOvercast.10 mph82%30.04 "HgN/A
3:55 PM55 °FOvercast.9 mph82%30.04 "HgN/A
3:25 PM55 °FDrizzle. More clouds than sun.10 mph82%30.04 "HgN/A
2:55 PM54 °FOvercast.9 mph88%30.07 "HgN/A
2:25 PM54 °FOvercast.9 mph88%30.07 "HgN/A
1:55 PM54 °FDrizzle. Overcast.9 mph88%30.07 "HgN/A
1:25 PM54 °FLight rain. Mostly cloudy.9 mph88%30.09 "HgN/A
12:55 PM52 °FOvercast.9 mph88%30.09 "HgN/A
12:25 PM52 °FLight rain. Mostly cloudy.9 mph88%30.09 "HgN/A
Weather by CustomWeather, © 2014

See weather overviewHow to use our weather pages